sat.trackr.live / text

‹ back to catalog

EARTHCARE

NORAD 59908 · 2024-101A

PAYLOAD ACTIVE UNKNOWN

§ Identity

Operator
Country
ESA
Launch date
2024-05-28
Launch site
AFWTR
Launch vehicle
Mass (kg)
RCS (m²)

External: N2YO · Heavens-Above · Gunter

§ Orbital elements

Epoch: 2026-05-24T22:01:18.886080Z

Period
92.48 min
Inclination
97.0485°
Eccentricity
0.0001584
Mean motion
15.57086501 rev/d
Perigee alt
395.0 km
Apogee alt
397.2 km
Semi-major
6,774.2 km
B*
1.4717e-4
RAAN
271.7706°
Arg perigee
101.9355°
Mean anomaly
258.2079°
Rev number
11,294

§ Raw data

EARTHCARE1 59908U 24101A   26144.91757970  .00010556  00000+0  14717-3 0  99902 59908  97.0485 271.7706 0001584 101.9355 258.2079 15.57086501112946

JSON: /api/v1/satellites/59908 · /tle

For live sub-satellite position, see the globe view (requires WebGL).

§ Visibility from observer

Set your observer location to see the next 7 days of passes ≥ 10°. The values pass through the URL so the page stays shareable.

No JS? Fill the form by hand. The geolocation button needs JavaScript.